Total_Precipitation_Accumulation
0.04 0.04 0.09 0.08 0.06 0.07 0.08 0.09 0.09 0.08 0.07 0.08 0.09 0.07 0.04 0.03 0.02 0.02 0.02 0.02 0.04 0.06 0.08 0.08 0.11 0.11 0.13 0.13 0.14 0.14 0.14 0.14 0.16 0.19 0.21 0.22 0.25 0.35 0.44 0.41 0.53 0.39 0.31
0.02 0.03 0.08 0.08 0.06 0.06 0.07 0.08 0.10 0.10 0.08 0.06 0.06 0.05 0.04 0.04 0.03 0.03 0.03 0.03 0.05 0.06 0.06 0.07 0.07 0.07 0.07 0.07 0.08 0.08 0.10 0.14 0.20 0.24 0.27 0.27 0.32 0.39 0.40 0.37 0.51 0.36 0.26
0.04 0.03 0.05 0.08 0.06 0.07 0.08 0.08 0.10 0.09 0.08 0.08 0.07 0.06 0.05 0.05 0.04 0.04 0.04 0.05 0.06 0.06 0.06 0.06 0.05 0.04 0.04 0.05 0.05 0.06 0.11 0.17 0.29 0.39 0.53 0.40 0.25 0.38 0.41 0.38 0.32 0.21 0.22
0.04 0.02 0.02 0.06 0.06 0.06 0.07 0.08 0.09 0.10 0.11 0.10 0.09 0.07 0.07 0.06 0.06 0.07 0.06 0.06 0.06 0.06 0.06 0.06 0.05 0.04 0.04 0.05 0.06 0.07 0.11 0.18 0.32 0.50 0.76 0.41 0.19 0.24 0.29 0.24 0.20 0.18 0.18
0.05 0.03 0.04 0.05 0.05 0.06 0.06 0.08 0.09 0.10 0.11 0.12 0.10 0.07 0.08 0.08 0.09 0.09 0.08 0.06 0.06 0.06 0.06 0.06 0.05 0.05 0.05 0.06 0.08 0.10 0.13 0.19 0.29 0.45 0.52 0.44 0.44 0.25 0.19 0.18 0.20 0.20 0.18
0.07 0.05 0.05 0.06 0.06 0.06 0.07 0.08 0.09 0.11 0.12 0.12 0.10 0.09 0.09 0.10 0.10 0.09 0.08 0.07 0.07 0.06 0.07 0.07 0.06 0.06 0.07 0.07 0.10 0.14 0.20 0.28 0.31 0.33 0.30 0.38 0.44 0.28 0.20 0.24 0.27 0.22 0.20
0.09 0.10 0.10 0.09 0.08 0.08 0.08 0.08 0.10 0.10 0.11 0.11 0.10 0.10 0.10 0.10 0.10 0.09 0.09 0.08 0.08 0.06 0.07 0.09 0.09 0.07 0.07 0.08 0.12 0.16 0.23 0.32 0.35 0.29 0.26 0.42 0.44 0.25 0.26 0.39 0.48 0.37 0.24
0.14 0.17 0.18 0.17 0.15 0.12 0.11 0.10 0.11 0.12 0.13 0.13 0.13 0.12 0.11 0.11 0.12 0.12 0.12 0.10 0.10 0.10 0.10 0.10 0.11 0.09 0.09 0.10 0.14 0.19 0.21 0.22 0.25 0.26 0.26 0.38 0.31 0.23 0.30 0.47 0.63 0.61 0.50
0.32 0.44 0.37 0.24 0.20 0.20 0.18 0.17 0.16 0.16 0.18 0.17 0.16 0.15 0.15 0.15 0.15 0.16 0.17 0.16 0.16 0.18 0.18 0.14 0.12 0.14 0.14 0.14 0.15 0.20 0.22 0.24 0.31 0.40 0.36 0.39 0.28 0.28 0.37 0.47 0.59 0.66 0.65
0.44 0.50 0.48 0.32 0.27 0.21 0.18 0.19 0.21 0.21 0.22 0.22 0.19 0.19 0.18 0.18 0.19 0.23 0.23 0.29 0.30 0.34 0.34 0.29 0.22 0.21 0.24 0.23 0.20 0.24 0.25 0.25 0.26 0.35 0.53 0.46 0.36 0.41 0.50 0.52 0.58 0.69 0.73
0.75 0.67 0.59 0.38 0.29 0.28 0.24 0.23 0.28 0.28 0.28 0.27 0.29 0.27 0.29 0.33 0.45 0.59 0.54 0.64 0.60 0.61 0.60 0.56 0.51 0.50 0.52 0.42 0.38 0.42 0.38 0.25 0.31 0.42 0.55 0.47 0.50 0.69 0.80 0.68 0.64 0.69 0.72
1.12 1.01 0.79 0.51 0.41 0.41 0.35 0.37 0.40 0.41 0.52 0.51 0.64 0.69 0.75 0.88 0.87 0.74 0.92 1.14 1.19 1.18 1.11 1.08 1.16 1.06 0.88 0.72 1.01 1.17 0.53 0.34 0.46 0.56 0.64 0.77 0.93 1.16 1.29 1.08 0.88 0.79 0.75
1.29 1.14 0.98 0.77 0.60 0.50 0.52 0.56 0.63 0.73 1.00 0.88 0.83 0.96 1.21 1.14 0.95 0.87 1.02 1.32 1.61 1.61 1.49 1.65 1.78 1.40 1.38 1.44 1.60 1.64 0.97 0.68 0.61 0.76 0.72 1.00 1.26 1.55 1.76 1.59 1.26 1.08 0.95
1.86 1.59 1.31 1.14 0.96 0.92 0.90 0.85 0.82 0.89 1.00 0.96 1.05 1.00 1.31 1.38 1.25 1.20 1.30 1.42 1.65 1.85 2.12 2.12 2.24 2.13 2.03 1.85 1.89 1.81 1.51 1.32 1.10 1.24 1.39 1.44 1.56 1.77 2.04 2.07 1.79 1.47 1.24
2.30 2.07 1.85 1.60 1.47 1.46 1.37 1.25 1.07 1.13 1.11 1.09 1.25 1.27 1.42 1.66 1.68 1.72 1.71 1.63 1.57 1.93 2.34 2.49 2.27 2.52 2.56 2.20 1.91 1.77 1.67 1.65 1.76 1.93 1.89 2.14 2.10 2.06 2.26 2.33 2.16 1.90 1.72
2.46 2.55 2.59 2.38 2.22 2.11 2.02 1.89 1.68 1.56 1.61 1.55 1.59 1.74 1.90 2.04 2.17 2.20 2.08 1.95 1.76 1.82 2.10 2.30 2.31 2.53 2.41 2.31 1.76 1.67 1.62 1.68 1.80 1.83 1.83 2.34 2.35 2.15 2.14 2.26 2.32 2.19 2.02
2.64 3.02 3.22 3.23 3.12 2.97 2.82 2.59 2.26 2.10 2.15 2.30 2.32 2.36 2.36 2.41 2.59 2.48 2.23 1.97 1.87 1.93 2.03 2.03 2.04 2.16 2.01 1.95 1.74 1.81 1.76 1.62 1.48 1.50 1.64 1.87 1.89 1.77 1.75 1.84 2.03 2.19 2.32
2.89 3.37 3.64 3.81 3.93 3.79 3.62 3.29 2.82 2.56 2.51 2.55 2.62 2.61 2.58 2.57 2.49 2.41 2.08 1.76 1.84 1.93 1.91 1.89 1.78 1.86 1.84 1.89 1.88 1.76 1.80 1.65 1.35 1.31 1.36 1.36 1.45 1.34 1.51 1.61 1.70 1.90 2.33
3.09 3.66 4.12 4.59 4.80 4.65 4.17 3.55 3.09 3.00 2.91 2.78 2.76 2.63 2.52 2.37 2.24 2.32 2.00 1.81 1.83 1.77 1.67 1.59 1.75 1.91 1.84 1.86 1.81 1.65 1.46 1.29 1.09 0.96 0.95 0.90 1.04 1.16 1.33 1.44 1.49 1.60 2.07
3.17 3.70 4.34 4.96 5.10 4.77 4.04 3.45 3.30 3.15 2.88 2.62 2.34 2.13 1.96 1.93 1.85 1.93 1.72 1.63 1.71 1.68 1.55 1.61 1.74 1.82 1.63 1.69 1.60 1.34 1.20 0.99 0.91 0.80 0.68 0.68 0.67 0.70 0.89 1.21 1.49 1.30 1.60
3.40 3.92 4.46 4.90 4.80 4.47 3.99 3.50 3.13 2.69 2.39 2.12 1.79 1.55 1.42 1.34 1.35 1.52 1.35 1.41 1.47 1.41 1.33 1.32 1.40 1.43 1.26 1.51 1.59 1.14 0.85 0.75 0.69 0.60 0.60 0.58 0.53 0.62 0.80 1.05 1.25 1.32 1.27
3.28 3.64 3.92 3.84 3.42 3.17 2.98 2.72 2.34 2.18 2.08 1.99 1.84 1.59 1.30 1.24 1.21 1.15 1.13 1.12 1.17 1.20 1.10 1.05 1.17 1.15 0.98 1.25 1.36 1.21 0.83 0.66 0.56 0.46 0.49 0.49 0.52 0.66 0.69 0.80 1.04 1.18 1.13
2.64 2.82 2.80 2.55 2.17 2.03 1.97 1.78 1.80 1.92 1.95 1.89 1.85 1.73 1.48 1.35 1.30 1.25 1.14 1.04 1.00 1.01 1.01 0.98 1.05 1.06 0.94 0.99 1.12 1.28 1.00 0.68 0.54 0.39 0.40 0.47 0.60 0.72 0.73 0.81 0.89 1.04 1.05
1.81 1.79 1.75 1.66 1.53 1.44 1.43 1.38 1.30 1.39 1.57 1.68 1.81 1.82 1.80 1.65 1.47 1.35 1.21 1.02 0.87 0.84 0.89 0.80 0.86 0.98 1.00 0.89 0.89 0.97 0.99 1.01 0.92 0.56 0.35 0.38 0.57 0.67 0.70 0.72 0.80 0.95 1.06
1.15 1.18 1.14 1.19 1.21 1.20 1.25 1.39 1.29 1.10 1.04 0.97 1.01 1.11 1.22 1.30 1.22 1.06 0.99 0.91 0.80 0.72 0.71 0.75 0.86 0.94 0.97 0.89 0.89 0.87 0.92 1.06 1.08 0.94 0.61 0.53 0.58 0.56 0.55 0.61 0.73 0.88 1.02
0.80 0.84 0.96 1.06 1.16 1.12 1.12 1.16 1.20 1.12 1.04 0.94 0.87 0.87 0.82 0.84 0.84 0.78 0.74 0.74 0.72 0.70 0.70 0.70 0.76 0.84 0.93 0.97 0.98 1.02 1.06 1.08 1.14 1.22 1.00 0.83 0.76 0.66 0.64 0.73 0.86 1.03 1.15